Tracking 19176 objects as of 26-May-2018
HD Live streaming from Space Station
objects crossing your sky now

COSMOS 1809

Track COSMOS 1809 now!
10-day predictions
COSMOS 1809 is classified as:


NORAD ID: 17241
Int'l Code: 1986-101A
Perigee: 944.6 km
Apogee: 968.3 km
Inclination: 82.5 °
Period: 104.0 minutes
Semi major axis: 7327 km
RCS: 8.1003 m2 (large)
Launch date: December 18, 1986
Source: Commonwealth of Independent States (former USSR) (CIS)
Launch site: PLESETSK MISSILE AND SPACE COMPLEX (PKMTR)
aabbcc
Your satellite tracking list
Your tracking list is empty




NASA's NSSDC Master Catalog

Two Line Element Set (TLE):
1 17241U 86101A   18145.45380938  .00000030  00000-0  13176-4 0  9995
2 17241  82.5292 105.2142 0016158 140.1783 337.3168 13.84112583587697
Source of the keplerian elements: AFSPC